Year,Month,Day,Hour,Minute,Value (Times are PST for temperature in C)
2013,05,06,00,00,13.80
2013,05,06,00,01,13.80
2013,05,06,00,02,13.80
2013,05,06,00,03,13.80
2013,05,06,00,04,13.80
2013,05,06,00,05,13.70
2013,05,06,00,06,13.70
2013,05,06,00,07,13.70
2013,05,06,00,08,13.70
2013,05,06,00,09,13.70
2013,05,06,00,10,13.70
2013,05,06,00,11,13.70
2013,05,06,00,12,13.70
2013,05,06,00,13,13.70
2013,05,06,00,14,13.70
2013,05,06,00,15,13.70
2013,05,06,00,16,13.70
2013,05,06,00,17,13.70
2013,05,06,00,18,13.70
2013,05,06,00,19,13.70
2013,05,06,00,20,13.70
2013,05,06,00,21,13.70
2013,05,06,00,22,13.70
2013,05,06,00,23,13.70
2013,05,06,00,24,13.70
2013,05,06,00,25,13.70
2013,05,06,00,26,13.70
2013,05,06,00,27,13.60
2013,05,06,00,28,13.60
2013,05,06,00,29,13.60
2013,05,06,00,30,13.60
2013,05,06,00,31,13.60
2013,05,06,00,32,13.60
2013,05,06,00,33,13.60
2013,05,06,00,34,13.60
2013,05,06,00,35,13.60
2013,05,06,00,36,13.60
2013,05,06,00,37,13.60
2013,05,06,00,38,13.50
2013,05,06,00,39,13.50
2013,05,06,00,40,13.50
2013,05,06,00,41,13.50
2013,05,06,00,42,13.50
2013,05,06,00,43,13.50
2013,05,06,00,44,13.50
2013,05,06,00,45,13.50
2013,05,06,00,46,13.50
2013,05,06,00,47,13.50
2013,05,06,00,48,13.40
2013,05,06,00,49,13.40
2013,05,06,00,50,13.40
2013,05,06,00,51,13.40
2013,05,06,00,52,13.40
2013,05,06,00,53,13.30
2013,05,06,00,54,13.30
2013,05,06,00,55,13.30
2013,05,06,00,56,13.30
2013,05,06,00,57,13.30
2013,05,06,00,58,13.30
2013,05,06,00,59,13.30
2013,05,06,01,00,13.30
2013,05,06,01,01,13.30
2013,05,06,01,02,13.30
2013,05,06,01,03,13.30
2013,05,06,01,04,13.30
2013,05,06,01,05,13.30
2013,05,06,01,06,13.30
2013,05,06,01,07,13.20
2013,05,06,01,08,13.20
2013,05,06,01,09,13.20
2013,05,06,01,10,13.20
2013,05,06,01,11,13.20
2013,05,06,01,12,13.20
2013,05,06,01,13,13.20
2013,05,06,01,14,13.20
2013,05,06,01,15,13.20
2013,05,06,01,16,13.20
2013,05,06,01,17,13.20
2013,05,06,01,18,13.20
2013,05,06,01,19,13.20
2013,05,06,01,20,13.20
2013,05,06,01,21,13.20
2013,05,06,01,22,13.20
2013,05,06,01,23,13.20
2013,05,06,01,24,13.10
2013,05,06,01,25,13.10
2013,05,06,01,26,13.10
2013,05,06,01,27,13.20
2013,05,06,01,28,13.20
2013,05,06,01,29,13.30
2013,05,06,01,30,13.30
2013,05,06,01,31,13.30
2013,05,06,01,32,13.20
2013,05,06,01,33,13.20
2013,05,06,01,34,13.20
2013,05,06,01,35,13.20
2013,05,06,01,36,13.20
2013,05,06,01,37,13.20
2013,05,06,01,38,13.20
2013,05,06,01,39,13.30
2013,05,06,01,40,13.30
2013,05,06,01,41,13.30
2013,05,06,01,42,13.20
2013,05,06,01,43,13.20
2013,05,06,01,44,13.20
2013,05,06,01,45,13.20
2013,05,06,01,46,13.30
2013,05,06,01,47,13.30
2013,05,06,01,48,13.30
2013,05,06,01,49,13.30
2013,05,06,01,50,13.30
2013,05,06,01,51,13.30
2013,05,06,01,52,13.30
2013,05,06,01,53,13.30
2013,05,06,01,54,13.30
2013,05,06,01,55,13.30
2013,05,06,01,56,13.20
2013,05,06,01,57,13.20
2013,05,06,01,58,13.20
2013,05,06,01,59,13.20
2013,05,06,02,00,13.20
2013,05,06,02,01,13.10
2013,05,06,02,02,13.10
2013,05,06,02,03,13.10
2013,05,06,02,04,13.10
2013,05,06,02,05,13.10
2013,05,06,02,06,13.10
2013,05,06,02,07,13.00
2013,05,06,02,08,13.00
2013,05,06,02,09,13.00
2013,05,06,02,10,13.00
2013,05,06,02,11,13.00
2013,05,06,02,12,13.00
2013,05,06,02,13,12.90
2013,05,06,02,14,12.90
2013,05,06,02,15,12.90
2013,05,06,02,16,12.90
2013,05,06,02,17,12.90
2013,05,06,02,18,12.90
2013,05,06,02,19,12.90
2013,05,06,02,20,12.90
2013,05,06,02,21,12.90
2013,05,06,02,22,12.80
2013,05,06,02,23,12.80
2013,05,06,02,24,12.80
2013,05,06,02,25,12.80
2013,05,06,02,26,12.80
2013,05,06,02,27,12.80
2013,05,06,02,28,12.80
2013,05,06,02,29,12.80
2013,05,06,02,30,12.80
2013,05,06,02,31,12.80
2013,05,06,02,32,12.80
2013,05,06,02,33,12.80
2013,05,06,02,34,12.80
2013,05,06,02,35,12.80
2013,05,06,02,36,12.80
2013,05,06,02,37,12.80
2013,05,06,02,38,12.80
2013,05,06,02,39,12.80
2013,05,06,02,40,12.80
2013,05,06,02,41,12.80
2013,05,06,02,42,12.80
2013,05,06,02,43,12.80
2013,05,06,02,44,12.80
2013,05,06,02,45,12.80
2013,05,06,02,46,12.80
2013,05,06,02,47,12.90
2013,05,06,02,48,12.90
2013,05,06,02,49,12.90
2013,05,06,02,50,12.90
2013,05,06,02,51,12.90
2013,05,06,02,52,12.80
2013,05,06,02,53,12.80
2013,05,06,02,54,12.80
2013,05,06,02,55,12.80
2013,05,06,02,56,12.80
2013,05,06,02,57,12.90
2013,05,06,02,58,12.90
2013,05,06,02,59,12.90
2013,05,06,03,00,13.00
2013,05,06,03,01,13.10
2013,05,06,03,02,13.10
2013,05,06,03,03,13.20
2013,05,06,03,04,13.20
2013,05,06,03,05,13.30
2013,05,06,03,06,13.40
2013,05,06,03,07,13.40
2013,05,06,03,08,13.50
2013,05,06,03,09,13.60
2013,05,06,03,10,13.60
2013,05,06,03,11,13.70
2013,05,06,03,12,13.70
2013,05,06,03,13,13.70
2013,05,06,03,14,13.70
2013,05,06,03,15,13.80
2013,05,06,03,16,13.80
2013,05,06,03,17,13.80
2013,05,06,03,18,13.80
2013,05,06,03,19,13.80
2013,05,06,03,20,13.80
2013,05,06,03,21,13.80
2013,05,06,03,22,13.90
2013,05,06,03,23,13.90
2013,05,06,03,24,13.90
2013,05,06,03,25,13.90
2013,05,06,03,26,13.90
2013,05,06,03,27,13.90
2013,05,06,03,28,13.90
2013,05,06,03,29,14.00
2013,05,06,03,30,14.00
2013,05,06,03,31,14.00
2013,05,06,03,32,14.00
2013,05,06,03,33,14.00
2013,05,06,03,34,13.90
2013,05,06,03,35,13.90
2013,05,06,03,36,13.90
2013,05,06,03,37,13.80
2013,05,06,03,38,13.80
2013,05,06,03,39,13.70
2013,05,06,03,40,13.70
2013,05,06,03,41,13.60
2013,05,06,03,42,13.60
2013,05,06,03,43,13.50
2013,05,06,03,44,13.50
2013,05,06,03,45,13.40
2013,05,06,03,46,13.40
2013,05,06,03,47,13.30
2013,05,06,03,48,13.30
2013,05,06,03,49,13.20
2013,05,06,03,50,13.20
2013,05,06,03,51,13.10
2013,05,06,03,52,13.10
2013,05,06,03,53,13.00
2013,05,06,03,54,13.00
2013,05,06,03,55,12.90
2013,05,06,03,56,12.90
2013,05,06,03,57,12.80
2013,05,06,03,58,12.80
2013,05,06,03,59,12.80
2013,05,06,04,00,12.80
2013,05,06,04,01,12.80
2013,05,06,04,02,12.70
2013,05,06,04,03,12.70
2013,05,06,04,04,12.70
2013,05,06,04,05,12.60
2013,05,06,04,06,12.60
2013,05,06,04,07,12.50
2013,05,06,04,08,12.50
2013,05,06,04,09,12.50
2013,05,06,04,10,12.50
2013,05,06,04,11,12.40
2013,05,06,04,12,12.40
2013,05,06,04,13,12.40
2013,05,06,04,14,12.40
2013,05,06,04,15,12.40
2013,05,06,04,16,12.40
2013,05,06,04,17,12.40
2013,05,06,04,18,12.40
2013,05,06,04,19,12.40
2013,05,06,04,20,12.40
2013,05,06,04,21,12.40
2013,05,06,04,22,12.40
2013,05,06,04,23,12.40
2013,05,06,04,24,12.40
2013,05,06,04,25,12.40
2013,05,06,04,26,12.30
2013,05,06,04,27,12.30
2013,05,06,04,28,12.30
2013,05,06,04,29,12.30
2013,05,06,04,30,12.30
2013,05,06,04,31,12.20
2013,05,06,04,32,12.20
2013,05,06,04,33,12.10
2013,05,06,04,34,12.10
2013,05,06,04,35,12.10
2013,05,06,04,36,12.00
2013,05,06,04,37,12.00
2013,05,06,04,38,12.00
2013,05,06,04,39,11.90
2013,05,06,04,40,11.90
2013,05,06,04,41,11.80
2013,05,06,04,42,11.80
2013,05,06,04,43,11.80
2013,05,06,04,44,11.80
2013,05,06,04,45,11.80
2013,05,06,04,46,11.70
2013,05,06,04,47,11.70
2013,05,06,04,48,11.70
2013,05,06,04,49,11.60
2013,05,06,04,50,11.60
2013,05,06,04,51,11.60
2013,05,06,04,52,11.60
2013,05,06,04,53,11.50
2013,05,06,04,54,11.40
2013,05,06,04,55,11.40
2013,05,06,04,56,11.40
2013,05,06,04,57,11.40
2013,05,06,04,58,11.40
2013,05,06,04,59,11.40
2013,05,06,05,00,11.40
2013,05,06,05,01,11.40
2013,05,06,05,02,11.40
2013,05,06,05,03,11.30
2013,05,06,05,04,11.30
2013,05,06,05,05,11.30
2013,05,06,05,06,11.30
2013,05,06,05,07,11.30
2013,05,06,05,08,11.30
2013,05,06,05,09,11.30
2013,05,06,05,10,11.30
2013,05,06,05,11,11.30
2013,05,06,05,12,11.30
2013,05,06,05,13,11.30
2013,05,06,05,14,11.20
2013,05,06,05,15,11.20
2013,05,06,05,16,11.20
2013,05,06,05,17,11.20
2013,05,06,05,18,11.20
2013,05,06,05,19,11.20
2013,05,06,05,20,11.20
2013,05,06,05,21,11.20
2013,05,06,05,22,11.20
2013,05,06,05,23,11.20
2013,05,06,05,24,11.20
2013,05,06,05,25,11.30
2013,05,06,05,26,11.30
2013,05,06,05,27,11.30
2013,05,06,05,28,11.30
2013,05,06,05,29,11.30
2013,05,06,05,30,11.30
2013,05,06,05,31,11.30
2013,05,06,05,32,11.30
2013,05,06,05,33,11.30
2013,05,06,05,34,11.30
2013,05,06,05,35,11.30
2013,05,06,05,36,11.20
2013,05,06,05,37,11.20
2013,05,06,05,38,11.20
2013,05,06,05,39,11.20
2013,05,06,05,40,11.20
2013,05,06,05,41,11.10
2013,05,06,05,42,11.20
2013,05,06,05,43,11.20
2013,05,06,05,44,11.20
2013,05,06,05,45,11.20
2013,05,06,05,46,11.20
2013,05,06,05,47,11.20
2013,05,06,05,48,11.20
2013,05,06,05,49,11.20
2013,05,06,05,50,11.20
2013,05,06,05,51,11.20
2013,05,06,05,52,11.20
2013,05,06,05,53,11.20
2013,05,06,05,54,11.20
2013,05,06,05,55,11.20
2013,05,06,05,56,11.20
2013,05,06,05,57,11.20
2013,05,06,05,58,11.20
2013,05,06,05,59,11.30
2013,05,06,06,00,11.30
2013,05,06,06,01,11.30
2013,05,06,06,02,11.30
2013,05,06,06,03,11.30
2013,05,06,06,04,11.30
2013,05,06,06,05,11.40
2013,05,06,06,06,11.40
2013,05,06,06,07,11.40
2013,05,06,06,08,11.40
2013,05,06,06,09,11.40
2013,05,06,06,10,11.40
2013,05,06,06,11,11.40
2013,05,06,06,12,11.40
2013,05,06,06,13,11.40
2013,05,06,06,14,11.50
2013,05,06,06,15,11.60
2013,05,06,06,16,11.60
2013,05,06,06,17,11.60
2013,05,06,06,18,11.60
2013,05,06,06,19,11.70
2013,05,06,06,20,11.70
2013,05,06,06,21,11.80
2013,05,06,06,22,11.80
2013,05,06,06,23,11.80
2013,05,06,06,24,11.90
2013,05,06,06,25,12.00
2013,05,06,06,26,12.00
2013,05,06,06,27,12.10
2013,05,06,06,28,12.20
2013,05,06,06,29,12.20
2013,05,06,06,30,12.30
2013,05,06,06,31,12.30
2013,05,06,06,32,12.30
2013,05,06,06,33,12.40
2013,05,06,06,34,12.50
2013,05,06,06,35,12.50
2013,05,06,06,36,12.50
2013,05,06,06,37,12.60
2013,05,06,06,38,12.60
2013,05,06,06,39,12.70
2013,05,06,06,40,12.70
2013,05,06,06,41,12.70
2013,05,06,06,42,12.80
2013,05,06,06,43,12.80
2013,05,06,06,44,12.80
2013,05,06,06,45,12.90
2013,05,06,06,46,12.90
2013,05,06,06,47,13.00
2013,05,06,06,48,13.10
2013,05,06,06,49,13.20
2013,05,06,06,50,13.20
2013,05,06,06,51,13.30
2013,05,06,06,52,13.30
2013,05,06,06,53,13.40
2013,05,06,06,54,13.50
2013,05,06,06,55,13.50
2013,05,06,06,56,13.60
2013,05,06,06,57,13.70
2013,05,06,06,58,13.80
2013,05,06,06,59,13.80
2013,05,06,07,00,13.90
2013,05,06,07,01,14.00
2013,05,06,07,02,14.10
2013,05,06,07,03,14.20
2013,05,06,07,04,14.20
2013,05,06,07,05,14.30
2013,05,06,07,06,14.40
2013,05,06,07,07,14.50
2013,05,06,07,08,14.60
2013,05,06,07,09,14.70
2013,05,06,07,10,14.80
2013,05,06,07,11,14.80
2013,05,06,07,12,14.80
2013,05,06,07,13,14.80
2013,05,06,07,14,14.90
2013,05,06,07,15,14.90
2013,05,06,07,16,15.00
2013,05,06,07,17,15.10
2013,05,06,07,18,15.20
2013,05,06,07,19,15.20
2013,05,06,07,20,15.30
2013,05,06,07,21,15.30
2013,05,06,07,22,15.40
2013,05,06,07,23,15.50
2013,05,06,07,24,15.50
2013,05,06,07,25,15.60
2013,05,06,07,26,15.60
2013,05,06,07,27,15.70
2013,05,06,07,28,15.80
2013,05,06,07,29,15.80
2013,05,06,07,30,15.80
2013,05,06,07,31,15.90
2013,05,06,07,32,16.00
2013,05,06,07,33,16.10
2013,05,06,07,34,16.10
2013,05,06,07,35,16.20
2013,05,06,07,36,16.30
2013,05,06,07,37,16.30
2013,05,06,07,38,16.40
2013,05,06,07,39,16.50
2013,05,06,07,40,16.60
2013,05,06,07,41,16.70
2013,05,06,07,42,16.70
2013,05,06,07,43,16.70
2013,05,06,07,44,16.80
2013,05,06,07,45,16.80
2013,05,06,07,46,16.90
2013,05,06,07,47,16.90
2013,05,06,07,48,16.90
2013,05,06,07,49,17.00
2013,05,06,07,50,17.00
2013,05,06,07,51,17.00
2013,05,06,07,52,17.10
2013,05,06,07,53,17.10
2013,05,06,07,54,17.20
2013,05,06,07,55,17.20
2013,05,06,07,56,17.20
2013,05,06,07,57,17.30
2013,05,06,07,58,17.30
2013,05,06,07,59,17.30
2013,05,06,08,00,17.30
2013,05,06,08,01,17.30
2013,05,06,08,02,17.30
2013,05,06,08,03,17.30
2013,05,06,08,04,17.30
2013,05,06,08,05,17.40
2013,05,06,08,06,17.40
2013,05,06,08,07,17.50
2013,05,06,08,08,17.50
2013,05,06,08,09,17.60
2013,05,06,08,10,17.60
2013,05,06,08,11,17.70
2013,05,06,08,12,17.80
2013,05,06,08,13,17.90
2013,05,06,08,14,18.00
2013,05,06,08,15,18.10
2013,05,06,08,16,18.10
2013,05,06,08,17,18.20
2013,05,06,08,18,18.20
2013,05,06,08,19,18.30
2013,05,06,08,20,18.30
2013,05,06,08,21,18.30
2013,05,06,08,22,18.30
2013,05,06,08,23,18.40
2013,05,06,08,24,18.50
2013,05,06,08,25,18.50
2013,05,06,08,26,18.60
2013,05,06,08,27,18.70
2013,05,06,08,28,18.70
2013,05,06,08,29,18.80
2013,05,06,08,30,18.80
2013,05,06,08,31,18.90
2013,05,06,08,32,18.90
2013,05,06,08,33,18.90
2013,05,06,08,34,19.00
2013,05,06,08,35,19.10
2013,05,06,08,36,19.10
2013,05,06,08,37,19.10
2013,05,06,08,38,19.20
2013,05,06,08,39,19.30
2013,05,06,08,40,19.30
2013,05,06,08,41,19.40
2013,05,06,08,42,19.50
2013,05,06,08,43,19.40
2013,05,06,08,44,19.30
2013,05,06,08,45,19.20
2013,05,06,08,46,19.20
2013,05,06,08,47,19.10
2013,05,06,08,48,19.10
2013,05,06,08,49,19.10
2013,05,06,08,50,19.10
2013,05,06,08,51,19.10
2013,05,06,08,52,19.10
2013,05,06,08,53,19.10
2013,05,06,08,54,19.10
2013,05,06,08,55,19.10
2013,05,06,08,56,19.10
2013,05,06,08,57,19.10
2013,05,06,08,58,19.20
2013,05,06,08,59,19.20
2013,05,06,09,00,19.10
2013,05,06,09,01,19.00
2013,05,06,09,02,18.80
2013,05,06,09,03,18.60
2013,05,06,09,04,18.50
2013,05,06,09,05,18.50
2013,05,06,09,06,18.50
2013,05,06,09,07,18.50
2013,05,06,09,08,18.60
2013,05,06,09,09,18.60
2013,05,06,09,10,18.70
2013,05,06,09,11,18.80
2013,05,06,09,12,18.90
2013,05,06,09,13,19.00
2013,05,06,09,14,19.10
2013,05,06,09,15,19.10
2013,05,06,09,16,19.10
2013,05,06,09,17,19.10
2013,05,06,09,18,19.10
2013,05,06,09,19,19.10
2013,05,06,09,20,19.10
2013,05,06,09,21,19.10
2013,05,06,09,22,19.10
2013,05,06,09,23,19.10
2013,05,06,09,24,19.20
2013,05,06,09,25,19.20
2013,05,06,09,26,19.30
2013,05,06,09,27,19.30
2013,05,06,09,28,19.30
2013,05,06,09,29,19.40
2013,05,06,09,30,19.40
2013,05,06,09,31,19.50
2013,05,06,09,32,19.70
2013,05,06,09,33,19.80
2013,05,06,09,34,19.90
2013,05,06,09,35,19.90
2013,05,06,09,36,20.00
2013,05,06,09,37,20.10
2013,05,06,09,38,20.20
2013,05,06,09,39,20.20
2013,05,06,09,40,20.20
2013,05,06,09,41,20.10
2013,05,06,09,42,20.10
2013,05,06,09,43,20.20
2013,05,06,09,44,20.20
2013,05,06,09,45,20.20
2013,05,06,09,46,20.20
2013,05,06,09,47,20.20
2013,05,06,09,48,20.20
2013,05,06,09,49,20.20
2013,05,06,09,50,20.20
2013,05,06,09,51,20.20
2013,05,06,09,52,20.30
2013,05,06,09,53,20.30
2013,05,06,09,54,20.30
2013,05,06,09,55,20.40
2013,05,06,09,56,20.50
2013,05,06,09,57,20.60
2013,05,06,09,58,20.60
2013,05,06,09,59,20.70
2013,05,06,10,00,20.70
2013,05,06,10,01,20.80
2013,05,06,10,02,20.80
2013,05,06,10,03,20.80
2013,05,06,10,04,20.80
2013,05,06,10,05,20.80
2013,05,06,10,06,20.90
2013,05,06,10,07,20.90
2013,05,06,10,08,20.90
2013,05,06,10,09,21.00
2013,05,06,10,10,21.00
2013,05,06,10,11,21.00
2013,05,06,10,12,21.10
2013,05,06,10,13,21.10
2013,05,06,10,14,21.10
2013,05,06,10,15,21.10
2013,05,06,10,16,21.20
2013,05,06,10,17,21.20
2013,05,06,10,18,21.20
2013,05,06,10,19,21.20
2013,05,06,10,20,21.20
2013,05,06,10,21,21.20
2013,05,06,10,22,21.20
2013,05,06,10,23,21.20
2013,05,06,10,24,21.20
2013,05,06,10,25,21.20
2013,05,06,10,26,21.30
2013,05,06,10,27,21.30
2013,05,06,10,28,21.30
2013,05,06,10,29,21.30
2013,05,06,10,30,21.30
2013,05,06,10,31,21.30
2013,05,06,10,32,21.30
2013,05,06,10,33,21.30
2013,05,06,10,34,21.30
2013,05,06,10,35,21.30
2013,05,06,10,36,21.30
2013,05,06,10,37,21.30
2013,05,06,10,38,21.40
2013,05,06,10,39,21.50
2013,05,06,10,40,21.60
2013,05,06,10,41,21.60
2013,05,06,10,42,21.70
2013,05,06,10,43,21.70
2013,05,06,10,44,21.80
2013,05,06,10,45,21.80
2013,05,06,10,46,21.90
2013,05,06,10,47,21.90
2013,05,06,10,48,22.00
2013,05,06,10,49,22.00
2013,05,06,10,50,22.00
2013,05,06,10,51,22.10
2013,05,06,10,52,22.10
2013,05,06,10,53,22.20
2013,05,06,10,54,22.20
2013,05,06,10,55,22.30
2013,05,06,10,56,22.40
2013,05,06,10,57,22.40
2013,05,06,10,58,22.40
2013,05,06,10,59,22.40
2013,05,06,11,00,22.40
2013,05,06,11,01,22.40
2013,05,06,11,02,22.40
2013,05,06,11,03,22.40
2013,05,06,11,04,22.50
2013,05,06,11,05,22.40
2013,05,06,11,06,22.30
2013,05,06,11,07,22.30
2013,05,06,11,08,22.20
2013,05,06,11,09,22.20
2013,05,06,11,10,22.10
2013,05,06,11,11,22.10
2013,05,06,11,12,22.00
2013,05,06,11,13,22.00
2013,05,06,11,14,22.00
2013,05,06,11,15,22.00
2013,05,06,11,16,21.90
2013,05,06,11,17,21.90
2013,05,06,11,18,21.80
2013,05,06,11,19,21.80
2013,05,06,11,20,21.80
2013,05,06,11,21,21.80
2013,05,06,11,22,21.80
2013,05,06,11,23,21.80
2013,05,06,11,24,21.80
2013,05,06,11,25,21.90
2013,05,06,11,26,21.90
2013,05,06,11,27,21.90
2013,05,06,11,28,22.00
2013,05,06,11,29,22.00
2013,05,06,11,30,22.00
2013,05,06,11,31,22.00
2013,05,06,11,32,22.10
2013,05,06,11,33,22.10
2013,05,06,11,34,22.10
2013,05,06,11,35,22.10
2013,05,06,11,36,22.10
2013,05,06,11,37,22.10
2013,05,06,11,38,22.10
2013,05,06,11,39,22.10
2013,05,06,11,40,22.10
2013,05,06,11,41,22.10
2013,05,06,11,42,22.10
2013,05,06,11,43,22.10
2013,05,06,11,44,22.10
2013,05,06,11,45,22.10
2013,05,06,11,46,22.10
2013,05,06,11,47,22.20
2013,05,06,11,48,22.20
2013,05,06,11,49,22.20
2013,05,06,11,50,22.30
2013,05,06,11,51,22.30
2013,05,06,11,52,22.30
2013,05,06,11,53,22.40
2013,05,06,11,54,22.40
2013,05,06,11,55,22.40
2013,05,06,11,56,22.50
2013,05,06,11,57,22.50
2013,05,06,11,58,22.50
2013,05,06,11,59,22.50
2013,05,06,12,00,22.50
2013,05,06,12,01,22.50
2013,05,06,12,02,22.50
2013,05,06,12,03,22.50
2013,05,06,12,04,22.50
2013,05,06,12,05,22.60
2013,05,06,12,06,22.70
2013,05,06,12,07,22.70
2013,05,06,12,08,22.80
2013,05,06,12,09,22.90
2013,05,06,12,10,22.90
2013,05,06,12,11,22.90
2013,05,06,12,12,22.90
2013,05,06,12,13,22.90
2013,05,06,12,14,23.10
2013,05,06,12,15,23.10
2013,05,06,12,16,23.10
2013,05,06,12,17,23.20
2013,05,06,12,18,23.30
2013,05,06,12,19,23.30
2013,05,06,12,20,23.30
2013,05,06,12,21,23.30
2013,05,06,12,22,23.50
2013,05,06,12,23,23.60
2013,05,06,12,24,23.70
2013,05,06,12,25,23.70
2013,05,06,12,26,23.70
2013,05,06,12,27,23.70
2013,05,06,12,28,23.70
2013,05,06,12,29,23.80
2013,05,06,12,30,23.80
2013,05,06,12,31,23.90
2013,05,06,12,32,23.90
2013,05,06,12,33,24.00
2013,05,06,12,34,24.10
2013,05,06,12,35,24.10
2013,05,06,12,36,24.10
2013,05,06,12,37,24.10
2013,05,06,12,38,24.10
2013,05,06,12,39,24.20
2013,05,06,12,40,24.20
2013,05,06,12,41,24.30
2013,05,06,12,42,24.30
2013,05,06,12,43,24.40
2013,05,06,12,44,24.50
2013,05,06,12,45,24.50
2013,05,06,12,46,24.50
2013,05,06,12,47,24.50
2013,05,06,12,48,24.60
2013,05,06,12,49,24.70
2013,05,06,12,50,24.70
2013,05,06,12,51,24.80
2013,05,06,12,52,24.90
2013,05,06,12,53,24.90
2013,05,06,12,54,25.00
2013,05,06,12,55,25.00
2013,05,06,12,56,25.00
2013,05,06,12,57,25.00
2013,05,06,12,58,25.10
2013,05,06,12,59,25.10
2013,05,06,13,00,25.10
2013,05,06,13,01,25.20
2013,05,06,13,02,25.30
2013,05,06,13,03,25.30
2013,05,06,13,04,25.30
2013,05,06,13,05,25.40
2013,05,06,13,06,25.50
2013,05,06,13,07,25.50
2013,05,06,13,08,25.50
2013,05,06,13,09,25.50
2013,05,06,13,10,25.60
2013,05,06,13,11,25.40
2013,05,06,13,12,25.30
2013,05,06,13,13,25.30
2013,05,06,13,14,25.30
2013,05,06,13,15,25.30
2013,05,06,13,16,25.40
2013,05,06,13,17,25.40
2013,05,06,13,18,25.50
2013,05,06,13,19,25.60
2013,05,06,13,20,25.70
2013,05,06,13,21,25.70
2013,05,06,13,22,25.70
2013,05,06,13,23,25.90
2013,05,06,13,24,26.00
2013,05,06,13,25,26.00
2013,05,06,13,26,25.90
2013,05,06,13,27,25.90
2013,05,06,13,28,25.70
2013,05,06,13,29,25.50
2013,05,06,13,30,25.40
2013,05,06,13,31,25.40
2013,05,06,13,32,25.50
2013,05,06,13,33,25.60
2013,05,06,13,34,25.60
2013,05,06,13,35,25.70
2013,05,06,13,36,25.80
2013,05,06,13,37,25.90
2013,05,06,13,38,26.00
2013,05,06,13,39,26.10
2013,05,06,13,40,26.00
2013,05,06,13,41,25.70
2013,05,06,13,42,25.60
2013,05,06,13,43,25.60
2013,05,06,13,44,25.60
2013,05,06,13,45,25.70
2013,05,06,13,46,25.80
2013,05,06,13,47,25.80
2013,05,06,13,48,25.90
2013,05,06,13,49,25.90
2013,05,06,13,50,26.00
2013,05,06,13,51,25.90
2013,05,06,13,52,25.70
2013,05,06,13,53,25.60
2013,05,06,13,54,25.00
2013,05,06,13,55,24.70
2013,05,06,13,56,24.30
2013,05,06,13,57,24.10
2013,05,06,13,58,23.40
2013,05,06,13,59,23.10
2013,05,06,14,00,23.00
2013,05,06,14,01,22.90
2013,05,06,14,02,22.80
2013,05,06,14,03,22.20
2013,05,06,14,04,21.80
2013,05,06,14,05,21.60
2013,05,06,14,06,21.50
2013,05,06,14,07,21.30
2013,05,06,14,08,21.20
2013,05,06,14,09,21.20
2013,05,06,14,10,21.20
2013,05,06,14,11,21.30
2013,05,06,14,12,21.30
2013,05,06,14,13,21.30
2013,05,06,14,14,21.30
2013,05,06,14,15,21.40
2013,05,06,14,16,21.40
2013,05,06,14,17,21.30
2013,05,06,14,18,21.30
2013,05,06,14,19,21.30
2013,05,06,14,20,21.10
2013,05,06,14,21,20.90
2013,05,06,14,22,20.80
2013,05,06,14,23,20.70
2013,05,06,14,24,20.70
2013,05,06,14,25,20.60
2013,05,06,14,26,20.50
2013,05,06,14,27,20.40
2013,05,06,14,28,20.20
2013,05,06,14,29,20.00
2013,05,06,14,30,19.80
2013,05,06,14,31,19.80
2013,05,06,14,32,19.70
2013,05,06,14,33,19.70
2013,05,06,14,34,19.60
2013,05,06,14,35,19.50
2013,05,06,14,36,19.50
2013,05,06,14,37,19.60
2013,05,06,14,38,19.60
2013,05,06,14,39,19.60
2013,05,06,14,40,19.60
2013,05,06,14,41,19.70
2013,05,06,14,42,19.90
2013,05,06,14,43,19.90
2013,05,06,14,44,20.00
2013,05,06,14,45,20.10
2013,05,06,14,46,20.10
2013,05,06,14,47,20.10
2013,05,06,14,48,20.00
2013,05,06,14,49,19.90
2013,05,06,14,50,19.90
2013,05,06,14,51,19.80
2013,05,06,14,52,19.80
2013,05,06,14,53,19.80
2013,05,06,14,54,19.80
2013,05,06,14,55,19.80
2013,05,06,14,56,19.70
2013,05,06,14,57,19.70
2013,05,06,14,58,19.60
2013,05,06,14,59,19.60
2013,05,06,15,00,19.70
2013,05,06,15,01,19.90
2013,05,06,15,02,20.00
2013,05,06,15,03,20.10
2013,05,06,15,04,20.00
2013,05,06,15,05,19.90
2013,05,06,15,06,19.90
2013,05,06,15,07,19.80
2013,05,06,15,08,19.80
2013,05,06,15,09,19.70
2013,05,06,15,10,19.60
2013,05,06,15,11,19.70
2013,05,06,15,12,19.70
2013,05,06,15,13,19.90
2013,05,06,15,14,19.90
2013,05,06,15,15,19.90
2013,05,06,15,16,19.80
2013,05,06,15,17,19.80
2013,05,06,15,18,19.80
2013,05,06,15,19,19.80
2013,05,06,15,20,19.80
2013,05,06,15,21,19.80
2013,05,06,15,22,19.90
2013,05,06,15,23,20.10
2013,05,06,15,24,20.20
2013,05,06,15,25,20.30
2013,05,06,15,26,20.40
2013,05,06,15,27,20.30
2013,05,06,15,28,20.20
2013,05,06,15,29,20.20
2013,05,06,15,30,20.00
2013,05,06,15,31,20.00
2013,05,06,15,32,19.90
2013,05,06,15,33,19.90
2013,05,06,15,34,19.90
2013,05,06,15,35,19.90
2013,05,06,15,36,19.90
2013,05,06,15,37,19.90
2013,05,06,15,38,19.80
2013,05,06,15,39,19.70
2013,05,06,15,40,19.60
2013,05,06,15,41,19.40
2013,05,06,15,42,19.40
2013,05,06,15,43,19.30
2013,05,06,15,44,19.20
2013,05,06,15,45,19.20
2013,05,06,15,46,19.20
2013,05,06,15,47,19.30
2013,05,06,15,48,19.30
2013,05,06,15,49,19.30
2013,05,06,15,50,19.20
2013,05,06,15,51,19.10
2013,05,06,15,52,19.10
2013,05,06,15,53,19.10
2013,05,06,15,54,19.10
2013,05,06,15,55,19.10
2013,05,06,15,56,19.10
2013,05,06,15,57,19.10
2013,05,06,15,58,18.90
2013,05,06,15,59,18.90
2013,05,06,16,00,18.90
2013,05,06,16,01,19.10
2013,05,06,16,02,19.10
2013,05,06,16,03,19.20
2013,05,06,16,04,19.30
2013,05,06,16,05,19.50
2013,05,06,16,06,19.60
2013,05,06,16,07,19.70
2013,05,06,16,08,19.70
2013,05,06,16,09,19.90
2013,05,06,16,10,19.90
2013,05,06,16,11,19.90
2013,05,06,16,12,19.90
2013,05,06,16,13,19.80
2013,05,06,16,14,19.80
2013,05,06,16,15,19.80
2013,05,06,16,16,19.80
2013,05,06,16,17,19.80
2013,05,06,16,18,19.90
2013,05,06,16,19,19.90
2013,05,06,16,20,19.90
2013,05,06,16,21,20.00
2013,05,06,16,22,20.10
2013,05,06,16,23,20.20
2013,05,06,16,24,20.20
2013,05,06,16,25,20.30
2013,05,06,16,26,20.40
2013,05,06,16,27,20.50
2013,05,06,16,28,20.50
2013,05,06,16,29,20.50
2013,05,06,16,30,20.50
2013,05,06,16,31,20.30
2013,05,06,16,32,20.20
2013,05,06,16,33,20.10
2013,05,06,16,34,19.90
2013,05,06,16,35,19.70
2013,05,06,16,36,19.60
2013,05,06,16,37,19.50
2013,05,06,16,38,19.50
2013,05,06,16,39,19.50
2013,05,06,16,40,19.60
2013,05,06,16,41,19.60
2013,05,06,16,42,19.50
2013,05,06,16,43,19.50
2013,05,06,16,44,19.40
2013,05,06,16,45,19.30
2013,05,06,16,46,19.30
2013,05,06,16,47,19.20
2013,05,06,16,48,19.10
2013,05,06,16,49,19.10
2013,05,06,16,50,18.90
2013,05,06,16,51,18.90
2013,05,06,16,52,18.90
2013,05,06,16,53,18.90
2013,05,06,16,54,18.90
2013,05,06,16,55,18.90
2013,05,06,16,56,18.70
2013,05,06,16,57,18.50
2013,05,06,16,58,18.40
2013,05,06,16,59,18.30
2013,05,06,17,00,18.20
2013,05,06,17,01,18.10
2013,05,06,17,02,17.80
2013,05,06,17,03,17.50
2013,05,06,17,04,17.20
2013,05,06,17,05,17.00
2013,05,06,17,06,16.50
2013,05,06,17,07,16.20
2013,05,06,17,08,15.90
2013,05,06,17,09,15.80
2013,05,06,17,10,15.70
2013,05,06,17,11,15.60
2013,05,06,17,12,15.50
2013,05,06,17,13,15.30
2013,05,06,17,14,15.30
2013,05,06,17,15,15.30
2013,05,06,17,16,15.20
2013,05,06,17,17,15.10
2013,05,06,17,18,14.90
2013,05,06,17,19,14.80